Location: Berlin
(38.3226°N, 75.2177°W)
Time: 16:11:21
(UTC+00:00)

Aureole 3 - Pass Details

Date: 26 October 2020
Orbit: 382 x 1232 km, 82.5° (Epoch: 26 November)

Event Time Altitude Azimuth Distance (km) Brightness Sun altitude
Rises 10:41:06 0° 347° (NNW) 2,725 6.6 -8.5°
Reaches altitude 10° 10:43:04 10° 343° (NNW) 1,931 5.8 -8.2°
Maximum altitude 10:47:16 59° 265° (W) 808 3.9 -7.3°
Drops below altitude 10° 10:52:36 10° 187° (S) 2,442 6.7 -6.3°
Sets 10:55:21 0° 183° (S) 3,521 7.5 -5.8°
